2023/08/07 00:00:00, 0.0,24.0
2023/08/07 00:10:00, 0.0,24.8
2023/08/07 00:20:00, 0.0,24.3
2023/08/07 00:30:00, 0.0,25.3
2023/08/07 00:40:00, 0.0,25.2
2023/08/07 00:50:00, 0.0,25.2
2023/08/07 01:00:00, 0.0,25.2
2023/08/07 01:10:00, 0.0,24.9
2023/08/07 01:20:00, 0.0,24.7
2023/08/07 01:30:00, 0.0,24.1
2023/08/07 01:40:00, 0.0,23.8
2023/08/07 01:50:00, 0.0,23.5
2023/08/07 02:00:00, 0.0,23.7
2023/08/07 02:10:00, 0.0,24.2
2023/08/07 02:20:00, 0.0,23.7
2023/08/07 02:30:00, 0.0,24.0
2023/08/07 02:40:00, 0.0,23.5
2023/08/07 02:50:00, 0.0,23.4
2023/08/07 03:00:00, 0.0,23.8
2023/08/07 03:10:00, 0.0,23.4
2023/08/07 03:20:00, 0.0,23.8
2023/08/07 03:30:00, 0.0,24.1
2023/08/07 03:40:00, 0.0,24.1
2023/08/07 03:50:00, 0.0,24.3
2023/08/07 04:00:00, 0.0,24.6
2023/08/07 04:10:00, 0.0,24.3
2023/08/07 04:20:00, 0.0,24.4
2023/08/07 04:30:00, 0.0,24.3
2023/08/07 04:40:00, 0.0,24.0
2023/08/07 04:50:00,---,24.0
2023/08/07 05:00:00,38.2,24.7
2023/08/07 05:10:00,38.4,24.6
2023/08/07 05:20:00,38.2,25.0
2023/08/07 05:30:00,37.7,25.0
2023/08/07 05:40:00,---,24.9
2023/08/07 05:50:00,---,24.9
2023/08/07 06:00:00,11.7,25.2
2023/08/07 06:10:00, 0.2,25.1
2023/08/07 06:20:00, 0.0,25.0
2023/08/07 06:30:00, 0.0,25.1
2023/08/07 06:40:00, 0.0,25.3
2023/08/07 06:50:00, 0.0,25.2
2023/08/07 07:00:00, 0.0,25.4
2023/08/07 07:10:00, 0.0,25.5
2023/08/07 07:20:00, 0.0,25.5
2023/08/07 07:30:00, 4.4,25.5
2023/08/07 07:40:00,35.9,26.0
2023/08/07 07:50:00,---,26.7
2023/08/07 08:00:00,20.2,26.1
2023/08/07 08:10:00, 0.0,25.9
2023/08/07 08:20:00, 0.0,25.4
2023/08/07 08:30:00, 0.0,24.9
2023/08/07 08:40:00, 0.0,25.1
2023/08/07 08:50:00, 0.0,25.4
2023/08/07 09:00:00, 0.0,25.4
2023/08/07 09:10:00, 0.6,25.0
2023/08/07 09:20:00, 0.0,25.4
2023/08/07 09:30:00, 0.0,25.6
2023/08/07 09:40:00, 0.0,25.8
2023/08/07 09:50:00, 0.0,25.4
2023/08/07 10:00:00, 0.0,25.2
2023/08/07 10:10:00, 0.0,25.4
2023/08/07 10:20:00, 0.0,25.3
2023/08/07 10:30:00, 0.1,25.2
2023/08/07 10:40:00, 0.0,25.6
2023/08/07 10:50:00, 0.0,25.6
2023/08/07 11:00:00, 0.0,25.7
2023/08/07 11:10:00, 0.0,25.6
2023/08/07 11:20:00, 0.0,25.3
2023/08/07 11:30:00, 0.0,25.0
2023/08/07 11:40:00, 0.0,24.7
2023/08/07 11:50:00, 0.0,24.6
2023/08/07 12:00:00, 0.0,24.6
2023/08/07 12:10:00, 0.0,24.8
2023/08/07 12:20:00, 0.1,25.2
2023/08/07 12:30:00,---,25.3
2023/08/07 12:40:00,---,25.4
2023/08/07 12:50:00, 0.1,25.4
2023/08/07 13:00:00, 0.0,25.3
2023/08/07 13:10:00, 4.7,25.1
2023/08/07 13:20:00, 0.0,24.9
2023/08/07 13:30:00, 0.1,24.7
2023/08/07 13:40:00, 0.1,24.9
2023/08/07 13:50:00, 0.1,24.7
2023/08/07 14:00:00, 0.0,24.8
2023/08/07 14:10:00, 0.0,24.7
2023/08/07 14:20:00, 0.0,24.7
2023/08/07 14:30:00, 0.0,24.3
2023/08/07 14:40:00, 0.0,24.3
2023/08/07 14:50:00, 0.0,24.1
2023/08/07 15:00:00, 0.0,23.9
2023/08/07 15:10:00, 0.0,23.8
2023/08/07 15:20:00, 0.0,23.7
2023/08/07 15:30:00, 0.1,23.6
2023/08/07 15:40:00, 0.0,23.8
2023/08/07 15:50:00, 0.0,23.8
2023/08/07 16:00:00, 0.1,23.9
2023/08/07 16:10:00, 0.1,24.0
2023/08/07 16:20:00, 0.1,24.0
2023/08/07 16:30:00, 0.1,24.3
2023/08/07 16:40:00, 0.0,24.1
2023/08/07 16:50:00, 0.0,24.1
2023/08/07 17:00:00, 0.0,23.8
2023/08/07 17:10:00, 0.0,24.0
2023/08/07 17:20:00, 0.0,24.0
2023/08/07 17:30:00, 0.0,23.9
2023/08/07 17:40:00, 0.1,23.7
2023/08/07 17:50:00, 0.6,24.1
2023/08/07 18:00:00, 0.3,24.3
2023/08/07 18:10:00, 2.7,24.4
2023/08/07 18:20:00, 4.4,24.5
2023/08/07 18:30:00, 1.4,24.4
2023/08/07 18:40:00, 1.6,24.5
2023/08/07 18:50:00, 6.5,24.5
2023/08/07 19:00:00,11.3,24.7
2023/08/07 19:10:00, 7.1,24.4
2023/08/07 19:20:00,13.7,25.0
2023/08/07 19:30:00,24.7,24.2
2023/08/07 19:40:00,29.5,24.6
2023/08/07 19:50:00,32.7,24.7
2023/08/07 20:00:00,25.3,25.0
2023/08/07 20:10:00,24.0,24.9
2023/08/07 20:20:00,30.1,24.8
2023/08/07 20:30:00,33.4,24.8
2023/08/07 20:40:00,31.9,24.4
2023/08/07 20:50:00,---,24.6
2023/08/07 21:00:00,27.2,25.1
2023/08/07 21:10:00,34.3,24.8
2023/08/07 21:20:00,34.3,25.1
2023/08/07 21:30:00,34.5,24.7
2023/08/07 21:40:00,34.8,24.5
2023/08/07 21:50:00,35.2,23.7
2023/08/07 22:00:00,35.4,23.7
2023/08/07 22:10:00,35.6,23.8
2023/08/07 22:20:00,35.8,24.6
2023/08/07 22:30:00,35.9,24.0
2023/08/07 22:40:00,35.9,24.5
2023/08/07 22:50:00,36.1,24.8
2023/08/07 23:00:00,---,24.8
2023/08/07 23:10:00, 0.0,25.1
2023/08/07 23:20:00, 0.0,24.7
2023/08/07 23:30:00, 0.0,25.1
2023/08/07 23:40:00, 0.0,25.4
2023/08/07 23:50:00, 0.0,25.2
